FENGYUN 1C DEB

Satellite information

Favourite Embed

Satellite Type and Status

DEBRISIN ORBIT

Key statistics

Satellite FENGYUN 1C DEB at a glance.

Uptime

9493

Days in orbit

Revolutions

≈ 14.3

Per day

Orbit

SSO

Sun Synchronous Orbit

Inclination

98.2

Latest

Satellite identification and parameters

Extended collection of information and parameters for FENGYUN 1C DEB.

Object identification

Identified? True

Debris? True

Object name: FENGYUN 1C DEB

International designator: 1999-025SG

Object number (NORAD): 30127

Object ID (CCSDS): 30127

Country: PEOPLES REPUBLIC OF CHINA (PRC)

Current information (Y/N): Y

RCS size: SMALL

Orbital parameters

Period: 100.383 minutes

Inclination: 98.2179 deg

SMA: 7154.833 km

Apoapsis: 842.471 km

Periapsis: 710.925 km

RAAN: 352.4746 deg

Eccentricy: 0.0091928

Argument of periapsis: 24.1523 deg

Mean anomaly: 336.3933 deg

Mean motion: 14.34509781 rev/day

Mean motion (dot): 0.00009268 rev/day2

B* drag term: 0.0031438 1/REarth

Two-line elements (TLE)

Creation date: May 6, 2025, 3:54 a.m.

Reference frame: TEME

Reference center: EARTH

Epoch: May 5, 2025, 2:35 p.m. UTC

TLE line 0: 0 FENGYUN 1C DEB

TLE line 1: 1 30127U 99025SG 25125.60820967 .00009268 00000-0 31438-2 0 9997

TLE line 2: 2 30127 98.2179 352.4746 0091928 24.1523 336.3933 14.34509781940621

Live tracking on map

Real-time ground track for satellite FENGYUN 1C DEB.

In-orbit conjunctions

A list of the most updated potential collisions computed for object FENGYUN 1C DEB.

Target Orbit TCA Probability of collision Miss distance Type
SL-3 R/B LEO 2025-04-09 17:00:36 0.0002068101 845.0 (m) ROCKET BODY
SL-16 DEB LEO 2025-02-11 01:11:46 0.0001374014 84.0 (m) DEBRIS
IRIDIUM 44 LEO 2024-12-31 18:21:13 0.0001021112 41.0 (m) PAYLOAD
CZ-4C R/B SSO 2024-11-14 06:43:27 0.000190959 278.0 (m) ROCKET BODY
NOAA 16 DEB SSO 2024-11-08 23:41:15 0.000111386 402.0 (m) DEBRIS

Associated space launch

Chinese polar orbiting meteorological satellite

FENGYUN 1C DEB was lifted into orbit during the mission ‘Long March 4B | Feng Yun 1C’, on board a Long March 4B space rocket.

The launch took place on May 10, 1999, 1:33 a.m. from Launch Complex 7.

For more information about the launch, click the button.

Launch to space Long March 4B | Feng Yun 1C
Long March 4B | Feng Yun 1C

Agency: N/A

Status: Launch Successful

Launch date: May 10, 1999, 1:33 a.m. UTC

Rocket: Long March 4B

Launch pad: Launch Complex 7

Location: Taiyuan Satellite Launch Center, People's Republic of China

...

Latest news about this satellite

There are no fresh news available about this satellite. Check back as we update our databases every day.


Newsletter sign-up

Weekly statistics, charts and insights to help you stay on top of the space industry.